Chattanooga, TN

5:30 PM EDT on July 21, 2017 (GMT -0400)
Lovell

Weather History for KCHA - October, 2011

Change the Weather History Date:

Friday, October 28, 2011

  Actual Average Record
Temperature  
Mean Temperature 49 °F 58 °F  
Max Temperature 53 °F 69 °F 84 °F (1940)
Min Temperature 45 °F 46 °F 26 °F (1957)
Degree Days  
Heating Degree Days 16 8  
Month to date heating degree days 130 131  
Since 1 July heating degree days 133 146  
Cooling Degree Days 0 1  
Month to date cooling degree days 16 49  
Year to date cooling degree days 2113 1738  
Moisture  
Dew Point 46 °F    
Average Humidity 87    
Maximum Humidity 93    
Minimum Humidity 80    
Precipitation  
Precipitation 0.38 in 0.11 in 2.23 in (1935)
Month to date precipitation 2.70 2.94  
Year to date precipitation 50.12 42.24  
Snow  
Snow 0.00 in 0.00 in - ()
Month to date snowfall 0.0 0.0  
Since 1 July snowfall 0.0 0.0  
Since 1 September snowfall 0.0 0.0  
Snow Depth 0.00 in    
Sea Level Pressure  
Sea Level Pressure 30.00 in    
Wind  
Wind Speed 10 mph (NNE)    
Max Wind Speed 17 mph    
Max Gust Speed 22 mph    
Visibility 8 miles    
Events Rain    
T = Trace of Precipitation, MM = Missing Value Source: NWS Daily Summary

Daily Weather History Graph

Daily Weather History Graph

Search for Another Location

Airport or City:

Trip Planner

Search our weather history database for the weather conditions in past years. The results will help you decide how hot, cold, wet, or windy it might be!

Date:

Astronomy

Oct. 28, 2011 Rise Set
Actual Time 7:57 AM EDT 6:50 PM EDT
Civil Twilight 7:31 AM EDT 7:16 PM EDT
Nautical Twilight 7:02 AM EDT 7:46 PM EDT
Astronomical Twilight 6:32 AM EDT 8:15 PM EDT
Moon 10:06 AM EDT (10/28) 8:20 PM EDT (10/28)
Length of Visible Light 11h 44m
Length of Day
10h 52m
Waxing Crescent, 5% of the Moon is Illuminated
Oct 28
Waxing Crescent
Nov 2
First Quarter
Nov 10
Full
Nov 18
Last Quarter
Nov 25
New

Hourly Weather History & Observations

Time (EDT) Temp. Windchill Dew Point Humidity Pressure Visibility Wind Dir Wind Speed Gust Speed Precip Events Conditions
12:27 AM 53.6 °F - 48.2 °F 82% 30.01 in 10.0 mi NNE 9.2 mph - N/A   Overcast
12:53 AM 53.1 °F - 48.9 °F 86% 30.00 in 10.0 mi North 8.1 mph - N/A   Overcast
1:53 AM 53.1 °F - 48.9 °F 86% 29.99 in 10.0 mi NNE 10.4 mph - N/A   Overcast
2:53 AM 52.0 °F - 46.9 °F 83% 29.98 in 10.0 mi NNE 10.4 mph - N/A   Overcast
3:53 AM 52.0 °F - 46.9 °F 83% 29.98 in 10.0 mi NNE 12.7 mph - N/A   Overcast
4:53 AM 52.0 °F - 46.0 °F 80% 29.97 in 10.0 mi NNE 12.7 mph 20.7 mph N/A   Overcast
5:53 AM 51.1 °F - 46.0 °F 83% 29.98 in 10.0 mi NNE 13.8 mph 18.4 mph N/A   Overcast
6:53 AM 51.1 °F - 46.0 °F 83% 29.99 in 10.0 mi NE 9.2 mph 17.3 mph N/A   Overcast
7:53 AM 50.0 °F - 46.4 °F 87% 29.99 in 10.0 mi NNE 10.4 mph - N/A Rain Light Rain
8:00 AM 50.0 °F - 44.6 °F 82% 29.99 in 10.0 mi NNE 9.2 mph - 0.00 in Rain Light Rain
8:39 AM 50.0 °F - 46.4 °F 87% 30.00 in 2.0 mi North 10.4 mph - 0.01 in Rain Light Rain
8:53 AM 50.0 °F - 46.0 °F 86% 30.01 in 2.0 mi NNE 10.4 mph - 0.04 in Rain Rain
9:20 AM 50.0 °F - 46.4 °F 87% 30.02 in 2.0 mi North 5.8 mph - 0.06 in Rain Light Rain
9:53 AM 48.9 °F - 46.9 °F 93% 30.03 in 2.0 mi NNW 5.8 mph - 0.10 in Rain Light Rain
10:53 AM 50.0 °F - 46.9 °F 89% 30.03 in 2.0 mi North 5.8 mph - 0.11 in Rain Light Rain
11:26 AM 50.0 °F - 46.4 °F 87% 30.02 in 5.0 mi NE 8.1 mph - 0.02 in Rain Light Rain
11:53 AM 50.0 °F - 46.9 °F 89% 30.02 in 6.0 mi NE 5.8 mph - 0.03 in Rain Light Rain
12:00 PM 50.0 °F - 46.4 °F 87% 30.02 in 10.0 mi NE 5.8 mph - 0.00 in   Overcast
12:53 PM 50.0 °F - 46.0 °F 86% 30.00 in 10.0 mi NNE 9.2 mph - 0.00 in Rain Light Rain
1:53 PM 50.0 °F - 46.9 °F 89% 29.97 in 10.0 mi North 9.2 mph - 0.03 in   Overcast
2:38 PM 48.2 °F - 46.4 °F 93% 29.97 in 10.0 mi North 12.7 mph - 0.00 in Rain Light Rain
2:53 PM 48.9 °F - 46.0 °F 90% 29.97 in 6.0 mi North 10.4 mph - 0.01 in Rain Light Rain
3:01 PM 48.2 °F - 46.4 °F 93% 29.98 in 4.0 mi North 8.1 mph - 0.01 in Rain Light Rain
3:41 PM 48.2 °F - 46.4 °F 93% 29.97 in 4.0 mi North 12.7 mph - 0.06 in Rain Light Rain
3:53 PM 48.9 °F - 46.0 °F 90% 29.97 in 6.0 mi North 12.7 mph - 0.06 in Rain Light Rain
4:53 PM 48.9 °F - 46.0 °F 90% 29.97 in 7.0 mi NNE 6.9 mph - N/A   Overcast
5:53 PM 48.9 °F - 46.0 °F 90% 29.99 in 10.0 mi NNE 4.6 mph - N/A   Overcast
6:53 PM 50.0 °F - 46.0 °F 86% 30.00 in 10.0 mi North 10.4 mph - N/A   Overcast
7:53 PM 48.0 °F - 45.0 °F 89% 30.03 in 10.0 mi NNW 10.4 mph - N/A   Overcast
8:53 PM 48.0 °F - 43.0 °F 83% 30.04 in 10.0 mi North 10.4 mph - N/A   Overcast
9:53 PM 46.9 °F - 42.1 °F 83% 30.05 in 10.0 mi North 11.5 mph - N/A   Overcast
10:53 PM 46.9 °F - 41.0 °F 80% 30.05 in 10.0 mi North 9.2 mph - N/A   Overcast
11:53 PM 46.0 °F 41.9 °F 41.0 °F 83% 30.06 in 10.0 mi NNW 8.1 mph - N/A   Overcast